Weather in Mugi

Russia / Republic of Dagestan     42°17′58″N   47°25′19″E
temp.,
°C
wind,
m/s
gust,
m/s
humid.,
%
clouds,
%
prec.,
mm/h
press.,
hPa
HPBL,
m
6 march, sat
sat600:00−2wsw22410 0.0 102022
03:00−2wsw22330 0.0 102022
06:00−2wsw22300 0.0 102021
09:00+3ssw22320 0.0 1019122
12:00+7e22260 0.0 1017527
15:00+6ese21400 0.0 1014390
18:00+2sw22650 0.0 101422
21:000wsw33448 0.0 101330
7 march, sun
sun700:000wsw433869 0.0 101138
03:000wsw444063 0.0 101141
06:00−1wsw3346100 0.0 101335
09:000nw3463100 0.0 1017444
12:00−2ene238385 0.1 1019387
15:00−4e338993 1.3 1020398
18:00−8e3392100 0.9 1021317
21:00−9se2291100 1.1 1023242
8 march, mon
mon800:00−8s128241 0.0 102378
03:00−7se117721 0.0 102323
06:00−8sse12840 0.0 102330
09:00−5ese33780 0.0 1021289
12:00−4e328051 0.0 1018361
15:00−4e329176 0.1 1016264
18:00−5e2294100 0.2 1016147
21:00−5nne1194100 0.9 1016129
9 march, tue
tue900:00−5nne1295100 2.3 1016154
03:00−6nne1297100 2.9 1016133
06:00−7ne119898 0.4 101744
09:00−6ne219197 0.6 1017308
12:00−4e2289100 0.2 1016399
15:00−4e2289100 0.4 1016329
18:00−6s129698 0.1 101737
21:00−7wsw227858 0.1 101922
10 march, wed
wed1000:00−8wsw22650 0.0 101923
03:00−8w22640 0.0 102022
06:00−9sw12654 0.0 102121
09:00−6e21769 0.0 1021359
12:00−5e339178 0.6 1021437
15:00−5ene339289 2.1 1020379
18:00−8e3397100 1.3 1021218
21:00−9ese2397100 2.6 1022181